[[{"header":{"parameterUnit":"m.s-1","parameterCategory":1,"la1":30.2991,"la2":30.254,"lo1":-89.0895,"lo2":-89.0444,"dy":0.0017,"dx":0.0017,"nx":28,"ny":28,"refTime":"2023-08-10T21:00:00:Z","depth":0,"parameterNumber":2,"parameterNumberName":"U-component_of_WINDS"},"data":[0,0,0,0,0,0,0,0,0,0,0,0,0,0,0,0,0,0,0,0,0,0,0,0,0,0,0,0,0,0,0,0,0,0,0,0,0,0,0,0,0,0,0,0,0,0,0,0,0,0,0,0,0,0,0,0,0,0,4.7384,4.7384,0,4.7441,4.7441,4.7442,4.7418,4.7417,4.7415,4.7414,4.7474,4.7477,4.748,0,0,0,0,0,0,0,0,0,0,0,0,0,4.7255,4.7258,4.7384,4.7384,4.7385,4.744,4.7441,4.7442,4.7418,4.7417,4.7415,4.7414,4.7473,4.7477,4.748,0,0,0,0,0,0,0,0,0,0,0,0,0,4.7312,4.7259,4.7383,4.738,4.738,4.744,4.7441,4.7442,4.7419,4.7417,4.7415,4.7413,4.7472,4.7476,4.7481,4.7548,0,0,4.7494,4.7496,0,0,0,0,0,0,0,0,4.7309,4.7316,4.738,4.738,4.7381,4.742,4.7418,4.7478,4.7419,4.7404,4.7414,4.7412,4.7458,4.7463,4.7479,4.7551,4.7554,4.7494,4.7497,4.7499,4.75,0,0,0,0,0,0,0,4.7305,4.7314,4.7406,4.7381,4.7381,4.7376,4.7381,4.7429,4.7442,4.7405,4.7404,4.7411,4.7458,4.7475,4.748,4.7555,4.7494,4.7498,4.7501,4.7502,4.7685,4.7687,0,0,0,0,0,0,4.7301,4.7311,4.7404,4.7408,4.7339,4.738,4.7386,4.741,4.7441,4.7444,4.7412,4.7409,4.7468,4.7475,4.7482,4.7562,4.7499,4.7503,4.7505,4.7683,4.7685,4.7688,0,0,0,0,0,0,4.7298,4.7309,4.7402,4.7359,4.737,4.7384,4.7411,4.7412,4.7428,4.7447,4.7449,4.7427,4.7467,4.7476,4.7532,4.7564,4.7505,4.7509,4.768,4.7683,4.7686,4.7724,0,0,0,0,0,0,4.7294,4.7308,4.7334,4.736,4.7373,4.745,4.7413,4.7414,4.7436,4.7432,4.7461,4.7464,4.7466,4.7525,4.7536,4.7569,4.7512,4.7677,4.7681,4.7685,4.772,4.7729,4.7736,0,0,0,0,0,4.729,4.7343,4.7335,4.7347,4.7405,4.7452,4.746,4.7461,4.7438,4.7464,4.7476,4.7463,4.7559,4.7531,4.7543,4.7578,4.7675,4.768,4.7685,4.7717,4.7727,4.7736,0,0,0,0,0,0,4.7321,4.7346,4.7338,4.7401,4.7425,4.7448,4.7481,4.7472,4.7503,4.7498,4.7499,4.7506,4.7563,4.7576,4.7545,4.7645,4.7614,4.7621,4.7634,4.7644,4.7651,4.7646,4.7516,0,0,0,0,0,4.7335,4.7371,4.7391,4.7445,4.7457,4.7467,4.7488,4.7486,4.7511,4.7521,4.7537,4.7562,4.7598,4.7622,4.7656,4.7722,4.7728,4.7752,4.776,4.7766,4.7773,4.7808,4.7819,4.7704,4.7704,4.7704,0,0,4.7365,4.7383,4.7406,4.7452,4.747,4.7507,4.7476,4.7517,4.7545,4.7528,4.7581,4.7594,4.7622,4.7683,4.7711,4.7696,4.7806,4.7773,4.7778,4.7781,4.7814,4.7825,4.7835,4.7708,4.7707,4.7707,0,0,4.7438,4.7455,4.7501,4.752,4.7548,4.7554,4.7565,4.7591,4.7598,4.7651,4.7639,4.7673,4.7735,4.7755,4.7773,4.7854,4.7842,4.7865,4.7905,4.794,4.7949,4.7957,4.7984,4.7995,4.7871,4.7871,4.7872,0,4.7471,4.7527,4.7526,4.7568,4.7589,4.7575,4.7621,4.764,4.7678,4.7692,4.7675,4.7751,4.7769,4.7835,4.7854,4.787,4.7882,4.7861,4.7947,4.7955,4.7963,4.7989,4.8,4.7874,4.7874,4.7873,4.7873,0,4.7566,4.7605,4.7639,4.7675,4.7699,4.7743,4.775,4.7775,4.7771,4.7779,4.7834,4.7855,4.7892,4.7908,4.7906,4.7973,4.7963,4.7947,4.7915,4.7976,4.8001,4.8011,4.7877,4.7877,4.7876,4.7875,0,0,4.766,4.7695,4.7707,4.7723,4.7753,4.7783,4.7826,4.7863,4.7883,4.791,4.7947,4.7999,4.7984,4.8005,4.8005,4.8035,4.8096,4.8015,4.8015,4.8028,4.8171,4.8182,4.8194,4.8089,4.8091,4.8093,4.8168,0,4.7734,4.781,4.7811,4.788,4.7916,4.7903,4.7941,4.7964,4.7972,4.8004,4.8014,4.8051,4.8029,4.8041,4.8071,4.8083,4.8125,4.8077,4.8123,4.8125,4.8115,4.8207,4.822,4.829,4.8178,4.818,4.8181,0,4.7831,4.786,4.7933,4.7957,4.7972,4.8006,4.8038,4.8069,4.8094,4.8099,4.8122,4.8117,4.8161,4.8129,4.8191,4.8158,4.8177,4.8186,4.8189,4.8192,4.8156,4.8212,4.8312,4.8322,4.8197,4.8195,4.8194,0,4.7891,4.7948,4.7999,4.8013,4.8042,4.8067,4.808,4.8103,4.8125,4.8154,4.8168,4.8202,4.8221,4.8247,4.8252,4.8228,4.8313,4.8282,4.8318,4.8318,4.8335,4.8334,4.8438,4.8349,4.8349,4.8349,4.8349,0,4.7973,4.8018,4.8026,4.8057,4.8107,4.8108,4.8158,4.8169,4.819,4.8223,4.8215,4.8246,4.8251,4.8284,4.8288,4.8337,4.8346,4.8351,4.8351,4.8351,4.835,4.8362,4.8357,4.8352,4.8351,4.8351,4.835,0,4.8048,4.8055,4.811,4.8133,4.814,4.8175,4.8195,4.8225,4.8233,4.8275,4.8285,4.8298,4.8336,4.8343,4.8389,4.8391,4.845,4.8446,4.8441,4.8441,4.8476,4.8472,4.8591,4.8606,4.8508,4.8509,4.851,0,4.81,4.8134,4.816,4.8182,4.8196,4.8231,4.8252,4.8255,4.8278,4.8309,4.8335,4.8372,4.8402,4.8463,4.8477,4.8511,4.8507,4.8547,4.8512,4.8511,4.8506,4.8504,4.8507,4.8553,4.8554,4.8555,4.8555,0,4.819,4.8192,4.8223,4.8256,4.8281,4.8307,4.8332,4.835,4.8356,4.8382,4.842,4.8443,4.8489,4.8526,4.856,4.8574,4.8566,4.8566,4.8576,4.8576,4.8571,4.8573,4.8458,4.8563,4.8562,4.8562,4.8561,4.8561,4.8254,4.8284,4.8307,4.8342,4.836,4.8383,4.8412,4.8423,4.8455,4.8492,4.8492,4.8534,4.8558,4.8603,4.8619,4.8652,4.864,4.8654,4.8658,4.8661,4.8664,4.8567,4.8659,4.8658,4.8658,4.8658,4.8658,0,4.8343,4.8357,4.839,4.8424,4.8451,4.8441,4.8467,4.8491,4.8527,4.855,4.8579,4.8623,4.8659,4.8675,4.871,4.8733,4.873,4.8742,4.874,4.8743,4.8674,4.8661,4.8744,4.8744,4.8744,4.8744,4.8744,4.8744,4.8393,4.8441,4.8446,4.8504,4.8518,4.8558,4.8574,4.8595,4.8613,4.8662,4.8691,4.8701,4.8722,4.8758,4.879,4.8794,4.8807,4.882,4.8822,4.8757,4.8748,4.874,4.8728,4.8823,4.8823,4.8889,4.8889,4.889]},{"header":{"parameterUnit":"m.s-1","parameterCategory":1,"la1":30.2991,"la2":30.254,"lo1":-89.0895,"lo2":-89.0444,"dy":0.0017,"dx":0.0017,"nx":28,"ny":28,"refTime":"2023-08-10T21:00:00:Z","depth":0,"parameterNumber":3,"parameterNumberName":"V-component_of_WINDS"},"data":[0,0,0,0,0,0,0,0,0,0,0,0,0,0,0,0,0,0,0,0,0,0,0,0,0,0,0,0,0,0,0,0,0,0,0,0,0,0,0,0,0,0,0,0,0,0,0,0,0,0,0,0,0,0,0,0,0,0,2.4718,2.4718,0,2.4743,2.4743,2.4743,2.4732,2.4731,2.4731,2.473,2.4754,2.4755,2.4756,0,0,0,0,0,0,0,0,0,0,0,0,0,2.4658,2.4659,2.4718,2.4718,2.4718,2.4743,2.4743,2.4743,2.4732,2.4731,2.4731,2.473,2.4753,2.4755,2.4756,0,0,0,0,0,0,0,0,0,0,0,0,0,2.4683,2.466,2.4718,2.4716,2.4716,2.4742,2.4743,2.4743,2.4732,2.4731,2.4731,2.473,2.4753,2.4755,2.4756,2.4786,0,0,2.4762,2.4763,0,0,0,0,0,0,0,0,2.4682,2.4686,2.4716,2.4716,2.4716,2.4733,2.473,2.4757,2.4733,2.4726,2.473,2.4729,2.4748,2.475,2.4756,2.4787,2.4788,2.4762,2.4763,2.4764,2.4764,0,0,0,0,0,0,0,2.468,2.4684,2.4727,2.4716,2.4716,2.4713,2.4715,2.4735,2.4741,2.4727,2.4726,2.4729,2.4747,2.4755,2.4757,2.4788,2.4762,2.4763,2.4765,2.4765,2.4842,2.4843,0,0,0,0,0,0,2.4679,2.4683,2.4727,2.4728,2.4697,2.4715,2.4718,2.4729,2.4741,2.4742,2.473,2.4728,2.4752,2.4755,2.4758,2.4792,2.4764,2.4765,2.4766,2.4842,2.4843,2.4844,0,0,0,0,0,0,2.4678,2.4683,2.4726,2.4705,2.4711,2.4717,2.4729,2.473,2.4737,2.4744,2.4745,2.4736,2.4751,2.4755,2.4779,2.4793,2.4766,2.4768,2.484,2.4842,2.4843,2.4862,0,0,0,0,0,0,2.4676,2.4682,2.4694,2.4706,2.4712,2.4747,2.473,2.4731,2.474,2.4739,2.475,2.4751,2.4751,2.4776,2.478,2.4795,2.4769,2.4839,2.4841,2.4843,2.486,2.4864,2.4867,0,0,0,0,0,2.4674,2.4698,2.4695,2.47,2.4727,2.4748,2.4751,2.4752,2.4741,2.4753,2.4757,2.4751,2.479,2.4779,2.4783,2.4798,2.4838,2.484,2.4843,2.4858,2.4863,2.4867,0,0,0,0,0,0,2.4688,2.47,2.4696,2.4725,2.4736,2.4746,2.4761,2.4756,2.477,2.4767,2.4766,2.4769,2.4793,2.4798,2.4785,2.4827,2.4813,2.4816,2.4823,2.4827,2.4831,2.4829,2.4771,0,0,0,0,0,2.4694,2.4711,2.472,2.4745,2.4751,2.4755,2.4764,2.4763,2.4774,2.4778,2.4784,2.4794,2.4808,2.4818,2.4832,2.486,2.4862,2.4873,2.4876,2.4879,2.4882,2.4897,2.4901,2.4851,2.4851,2.4851,0,0,2.4707,2.4716,2.4727,2.4748,2.4756,2.4773,2.4759,2.4777,2.4789,2.478,2.4803,2.4808,2.4819,2.4845,2.4856,2.4849,2.4896,2.4882,2.4884,2.4886,2.4899,2.4904,2.4908,2.4853,2.4852,2.4852,0,0,2.474,2.4749,2.477,2.4779,2.4791,2.4794,2.4799,2.481,2.4813,2.4836,2.4829,2.4843,2.4869,2.4877,2.4884,2.4919,2.4913,2.4924,2.4942,2.4956,2.496,2.4963,2.4976,2.498,2.4926,2.4926,2.4926,0,2.4755,2.4781,2.4782,2.4801,2.481,2.4803,2.4824,2.4832,2.4848,2.4854,2.4846,2.4877,2.4884,2.4912,2.492,2.4927,2.4932,2.4922,2.496,2.4963,2.4966,2.4978,2.4982,2.4927,2.4927,2.4927,2.4927,0,2.4799,2.4817,2.4832,2.4848,2.4859,2.4879,2.4881,2.4892,2.489,2.4893,2.4916,2.4924,2.4939,2.4945,2.4944,2.4972,2.4968,2.496,2.4945,2.4972,2.4983,2.4987,2.4929,2.4929,2.4928,2.4928,0,0,2.4841,2.4857,2.4863,2.487,2.4883,2.4897,2.4915,2.4931,2.494,2.4951,2.4966,2.4988,2.498,2.4989,2.4987,2.5,2.5027,2.499,2.4991,2.4997,2.5058,2.5064,2.5069,2.5023,2.5024,2.5024,2.5057,0,2.4875,2.4909,2.491,2.4941,2.4957,2.4951,2.4967,2.4976,2.4979,2.4993,2.4996,2.5011,2.5,2.5005,2.5017,2.5021,2.5039,2.5019,2.5036,2.5037,2.5034,2.5075,2.5081,2.5112,2.5061,2.5062,2.5063,0,2.4919,2.4932,2.4965,2.4975,2.4982,2.4997,2.5011,2.5024,2.5034,2.5035,2.5044,2.5041,2.5059,2.5044,2.5069,2.5055,2.5062,2.5065,2.5066,2.5068,2.5051,2.5077,2.5121,2.5126,2.5069,2.5069,2.5068,0,2.4946,2.4972,2.4995,2.5001,2.5014,2.5024,2.503,2.5039,2.5048,2.506,2.5065,2.5079,2.5086,2.5096,2.5096,2.5086,2.5121,2.5106,2.5122,2.5122,2.513,2.5129,2.5176,2.5135,2.5135,2.5135,2.5135,0,2.4984,2.5004,2.5007,2.5021,2.5043,2.5043,2.5065,2.5069,2.5078,2.5092,2.5087,2.51,2.5099,2.5112,2.5112,2.5133,2.5136,2.5137,2.5137,2.5137,2.5137,2.5142,2.514,2.5136,2.5136,2.5135,2.5135,0,2.5018,2.5021,2.5045,2.5055,2.5058,2.5074,2.5082,2.5095,2.5098,2.5116,2.512,2.5124,2.5139,2.514,2.5157,2.5157,2.5181,2.5179,2.5178,2.5178,2.5193,2.5192,2.5244,2.5251,2.5206,2.5206,2.5207,0,2.5041,2.5057,2.5069,2.5078,2.5084,2.51,2.5109,2.5109,2.5119,2.5131,2.5142,2.5157,2.5169,2.5193,2.5197,2.521,2.5207,2.5225,2.5209,2.5209,2.5207,2.5206,2.5207,2.5228,2.5228,2.5229,2.5229,0,2.5083,2.5083,2.5097,2.5112,2.5123,2.5134,2.5145,2.5153,2.5154,2.5165,2.5181,2.519,2.5208,2.5222,2.5235,2.5239,2.5234,2.5234,2.5238,2.5239,2.5238,2.5238,2.5186,2.5233,2.5232,2.5232,2.5232,2.5232,2.5112,2.5125,2.5136,2.5151,2.5159,2.5169,2.5181,2.5186,2.5199,2.5214,2.5213,2.523,2.5239,2.5256,2.5261,2.5274,2.5268,2.5274,2.5276,2.5277,2.5279,2.5236,2.5276,2.5276,2.5276,2.5276,2.5276,0,2.5153,2.5159,2.5173,2.5188,2.52,2.5195,2.5206,2.5216,2.5232,2.5241,2.5253,2.527,2.5284,2.5289,2.5302,2.5312,2.531,2.5315,2.5314,2.5315,2.5284,2.5279,2.5316,2.5316,2.5316,2.5316,2.5316,2.5316,2.5175,2.5197,2.5199,2.5225,2.5231,2.5248,2.5255,2.5264,2.5271,2.5291,2.5303,2.5306,2.5313,2.5327,2.5339,2.534,2.5345,2.5351,2.5351,2.5322,2.5318,2.5314,2.5309,2.5352,2.5353,2.5382,2.5382,2.5382]}]]